Regional Weather Roundup
Issued by NWS

Home | Current Version | Previous Version | Graphics & Text | Print | Product List | Glossary On
Versions: 1 2 3 4 5 6 7 8 9 10 11 12 13 14 15 16 17 18 19 20 21 22 23 24 25 26 27 28 29 30 31 32 33 34 35 36 37 38 39 40 41 42 43 44 45 46 47 48 49 50
000
ASUS43 KDMX 230201
RWRIA

WEATHER ROUNDUP FOR IOWA
NATIONAL WEATHER SERVICE DES MOINES IA
800 PM CST SUN JAN 22 2017

NOTE: "FAIR" INDICATES FEW OR NO CLOUDS BELOW 12,000 FEET WITH NO
SIGNIFICANT WEATHER AND/OR OBSTRUCTIONS TO VISIBILITY.

* - THESE STATIONS ARE NOT NWS STATIONS...THUS NOT UNDER NWS
QUALITY CONTROL.  THEY ALSO DO NOT REPORT WEATHER SUCH
AS PRECIPITATION OR FOG.

IAZ001>003-012>014-020>022-031>034-043>046-230300-
   NORTHWEST IOWA

CITY           SKY/WX    TMP DP  RH WIND       PRES   REMARKS
CARROLL *      CLOUDY    34  32  93 NW17G23   29.83R FOG     WCI  23
CHEROKEE *     CLOUDY    31  30  97 NW7       29.86S WCI  24
DENISON *      CLOUDY    32  30  93 NW8       29.85R WCI  25
LE MARS *      CLOUDY    32  28  86 NW15      29.88S WCI  22
ORANGE CITY *  CLOUDY    30  28  93 NW13      29.86R WCI  20
SHELDON *      CLOUDY    30  30 100 NW14G21   29.83S FOG     WCI  20
SIOUX CITY     CLEAR     31  28  89 NW10      29.88R WCI  22
SPENCER          N/A    N/A N/A N/A MISG      29.84R
STORM LAKE *   CLOUDY    32  30  93 W14G20    29.84R FOG     WCI  22
$$

IAZ055>058-069>071-079>083-090>094-230300-
   SOUTHWEST IOWA

CITY           SKY/WX    TMP DP  RH WIND       PRES   REMARKS
ATLANTIC *     CLOUDY    34  34 100 NW13      29.85R WCI  25
AUDUBON *      CLOUDY    34  30  86 NW13G20   29.85R FOG     WCI  25
CLARINDA *     MOCLDY    36  36 100 NW9       29.88R WCI  29
COUNCIL BLFS * CLEAR     34  34 100 NW8       29.86S WCI  27
CRESTON *      CLOUDY    36  36 100 NW10      29.83R WCI  28
HARLAN  *      CLOUDY    34  34 100 N12       29.89R WCI  25
LAMONI         CLOUDY    37  35  92 NW10      29.80R WCI  30
RED OAK *      MOCLDY    34  34 100 NW7       29.87R WCI  28
SHENANDOAH *   MOCLDY    34  32  93 CALM      29.88R
$$

IAZ047>049-059>061-072>074-084-230300-
   CENTRAL IOWA

CITY           SKY/WX    TMP DP  RH WIND       PRES   REMARKS
AMES           CLOUDY    37  37 100 N12       29.80R FOG     WCI  29
ANKENY *       CLOUDY    37  36  93 NW9G16    29.81R FOG     WCI  31
BOONE *        CLOUDY    37  37 100 NW9       29.80R WCI  31
CHARITON *     CLOUDY    36  36 100 NW12G17   29.79R FOG     WCI  27
DES MOINES     CLOUDY    38  36  92 NW9       29.81R WCI  31
GRINNELL*      CLOUDY    36  35  96 NW8       29.77S FOG     WCI  30
KNOXVILLE *    CLOUDY    37  36  93 NW10      29.77S WCI  30
MARSHALLTOWN   CLOUDY    36  35  96 NW10      29.78R WCI  28
NEWTON *       CLOUDY    37  36  93 NW13      29.78R WCI  29
PELLA *        CLOUDY    37  36  95 NW10      29.79S FOG     WCI  30
PERRY *        CLOUDY    37  36  94 NW8       29.82R WCI  31
$$

IAZ004>006-015-016-023>025-035-036-230300-
   NORTH CENTRAL IOWA

CITY           SKY/WX    TMP DP  RH WIND       PRES   REMARKS
ALGONA *       CLOUDY    36  36 100 NW10      29.81R FOG     WCI  28
CLARION *      FOG       36  36 100 NW9       29.80R VSB 1   WCI  29
ESTHERVILLE    CLOUDY    31  31 100 W12       29.82R FOG     WCI  22
FORT DODGE *   CLOUDY    36  34  93 NW9       29.82R WCI  29
MASON CITY     FOG       34  34 100 NW7       29.80R VSB 1/2 WCI  28
FOREST CITY *  FOG       34  34 100 NW9       29.79S VSB 1/2 WCI  26
WEBSTER CITY * CLOUDY    36 N/A N/A NW9       29.79R WCI  29
IOWA FALLS *   CLOUDY    36  35  94 NW9       29.79S FOG     WCI  29
$$

IAZ007>011-017>019-026>030-037>042-050>054-066-230300-
   NORTHEAST IOWA

CITY           SKY/WX    TMP DP  RH WIND       PRES   REMARKS
CEDAR RAPIDS   CLOUDY    35  34  96 NW15      29.73R WCI  25
CHARLES CITY * CLOUDY    36  36 100 NW9       29.78R FOG     WCI  29
CLINTON *      CLOUDY    35  34  96 NW12      29.69F WCI  27
DECORAH *      CLOUDY    36  34  93 N6        29.74R FOG     WCI  31
DUBUQUE        CLOUDY    35  34  96 N14       29.70S FOG     WCI  26
MONTICELLO *   CLOUDY    37  36  93 NW13      29.72R WCI  29
OELWEIN *        N/A     34  34 100 NW10      29.75S WCI  26
WATERLOO       CLOUDY    35  33  92 NW9       29.76S WCI  28
$$

IAZ064-065-067-068-078-230300-
   EAST CENTRAL IOWA

CITY           SKY/WX    TMP DP  RH WIND       PRES   REMARKS
DAVENPORT      MOCLDY    34  33  96 NW10      29.69F FOG     WCI  26
IOWA CITY      CLOUDY    39  35  86 NW10      29.75R WCI  32
MUSCATINE *    CLOUDY    37  34  87 NW10      29.72F WCI  30
QUAD CITIES    CLEAR     37  33  85 NW7       29.69S WCI  32
$$

IAZ062-063-075>077-085>089-095>099-230300-
   SOUTHEAST IOWA

CITY           SKY/WX    TMP DP  RH WIND       PRES   REMARKS
BURLINGTON     CLOUDY    35  33  92 NW9       29.71S WCI  28
FAIRFIELD *    CLOUDY    37  36  93 NW9       29.74S WCI  31
FORT MADISON * MOCLDY    36  34  93 NW9       29.73R WCI  29
KEOKUK *       CLOUDY    36 N/A N/A VRB6      29.72R WCI  31
OSKALOOSA *    CLOUDY    36  35  96 NW10      29.77S FOG     WCI  28
CENTERVILLE *  CLOUDY    36  36 100 NW10      29.78S WCI  28
OTTUMWA        CLOUDY    38  35  89 NW13      29.75R WCI  30
WASHINGTON *   CLOUDY    37  37 100 NW10      29.75S FOG     WCI  30
$$

ABBREVIATIONS USED IN REMARKS
   TC - TEMPERATURES IN CELSIUS
  WCI - WIND CHILL INDEX
   HX - HEAT INDEX
  VSB - VISIBILITY
$$




USA.gov is the U.S. government's official web portal to all federal, state and local government web resources and services.